KCVG Airport Diagram

We have created a template for each of the higher traffic airports in the vZID airspace. They include KCMH, KCRW, KCVG, KDAY, KIND, KLEX and KSDF. You wil find usefull information including the airport diagram, weather, and specific airport procedures.

KCVG Weather

[Source: ADDS]
METAR
KCVG 180052Z 22005KT 3/4SM R18C/6000VP6000FT -DZ BR OVC002 04/03 A2998 RMK AO2 DZB46 SLP157 P0000 T00390033 =
KCVG 180102Z 1801/1906 22005KT 3/4SM -DZ BR OVC002 FM180300 26006KT 1/2SM FG OVC004 FM180700 29006KT 1 1/2SM BR OVC004 FM181400 31004KT P6SM OVC005 FM181800 10005KT P6SM OVC009
TAF
KCVG 180102Z 1801/1906 22005KT 3/4SM -DZ BR OVC002 FM180300 26006KT 1/2SM FG OVC004 FM180700 29006KT 1 1/2SM BR OVC004 FM181400 31004KT P6SM OVC005 FM181800 10005KT P6SM OVC009 =

KCVG Operations

Calm Wind Configuration is Landing runways 36C and 36R, departing runway 27.

You can expect  this configuration up to and including a 10 knot tailwind.

The Center runway is the old 18R/36L in the default scenery. Additionally, runway 9/27 was lengthened to 12,000 feet when the west runway (18R/36L) was added.

Where parallel taxiways exist, inner taxiway is used by inbound traffic and outer taxiway is used by outbound traffic.

FDX & UPS use the ramp area at Terminal 1.

New Scenery is available at FlightSim.com.

On initial contact, arriving aircraft should notify the the controller which scenery they have.

 

JSN Epic template designed by JoomlaShine.com